Weather History for KD07 - September, 2013

Change the Weather History Date:

Monday, September 2, 2013

  Actual Average Record
Temperature  
Mean Temperature 72 °F 67 °F  
Max Temperature 91 °F 81 °F 99 °F (1998)
Min Temperature 53 °F 53 °F 47 °F (2010)
Degree Days  
Heating Degree Days 0 2  
Month to date heating degree days 0 4  
Since 1 July heating degree days 15 37  
Cooling Degree Days 7 5  
Month to date cooling degree days 9 10  
Year to date cooling degree days 599 585  
Growing Degree Days 22 (Base 50)    
Moisture  
Dew Point 53 °F    
Average Humidity 58    
Maximum Humidity 89    
Minimum Humidity 27    
Precipitation  
Precipitation 0.00 in 0.05 in 0.21 in (1999)
Month to date precipitation 0.00 0.11  
Year to date precipitation 12.37 13.93  
Sea Level Pressure  
Sea Level Pressure 29.98 in    
Wind  
Wind Speed 15 mph (SE)    
Max Wind Speed 21 mph    
Max Gust Speed 28 mph    
T = Trace of Precipitation, MM = Missing Value Source: NWS Daily Summary

Daily Weather History Graph

Daily Weather History Graph

Search for Another Location

Airport or City:

Trip Planner

Search our weather history database for the weather conditions in past years. The results will help you decide how hot, cold, wet, or windy it might be!

Date:

Astronomy

Sep. 02, 2013 Rise Set
Actual Time 6:11 AM MDT 7:22 PM MDT
Civil Twilight 5:41 AM MDT 7:52 PM MDT
Nautical Twilight 5:04 AM MDT 8:29 PM MDT
Astronomical Twilight 4:26 AM MDT 9:07 PM MDT
Moon 3:26 AM MDT (9/2) 5:40 PM MDT (9/2)
Length of Visible Light 14h 11m
Length of Day
13h 11m
Waning Crescent, 7% of the Moon is Illuminated
Sep 2
Waning Crescent
Sep 5
New
Sep 12
First Quarter
Sep 19
Full
Sep 26
Last Quarter

Hourly Weather History & Observations

Time (MDT) Temp. Heat Index Dew Point Humidity Pressure Visibility Wind Dir Wind Speed Gust Speed Precip Events Conditions
12:56 AM 57.0 °F - 50.0 °F 77% 30.06 in - SSE 9.2 mph - N/A   Unknown
1:56 AM 55.0 °F - 50.0 °F 83% 30.06 in - SSE 11.5 mph - N/A   Unknown
2:56 AM 53.1 °F - 50.0 °F 89% 30.06 in - SSE 11.5 mph - N/A   Unknown
3:56 AM 53.1 °F - 50.0 °F 89% 30.06 in - SSE 12.7 mph - N/A   Unknown
4:56 AM 55.9 °F - 51.1 °F 84% 30.04 in - SE 11.5 mph - N/A   Unknown
5:56 AM 55.9 °F - 51.1 °F 84% 30.04 in - SSE 11.5 mph - N/A   Unknown
6:56 AM 57.9 °F - 52.0 °F 81% 30.04 in - SE 13.8 mph - N/A   Unknown
7:56 AM 64.9 °F - 53.1 °F 65% 30.04 in - SE 15.0 mph - N/A   Unknown
8:56 AM 70.0 °F - 53.1 °F 55% 30.04 in - SE 20.7 mph - N/A   Unknown
9:56 AM 73.9 °F - 53.1 °F 48% 30.04 in - SE 18.4 mph - N/A   Unknown
10:56 AM 78.1 °F - 53.1 °F 42% 30.02 in - SE 18.4 mph - N/A   Unknown
11:56 AM 82.0 °F 81.2 °F 53.1 °F 37% 30.00 in - SSE 18.4 mph 25.3 mph N/A   Unknown
12:56 PM 84.9 °F - 52.0 °F 32% 29.98 in - SSE 17.3 mph 24.2 mph N/A   Unknown
1:56 PM 87.1 °F 85.1 °F 54.0 °F 32% 29.96 in - SE 12.7 mph 24.2 mph N/A   Unknown
2:56 PM 90.0 °F - 52.0 °F 27% 29.94 in - SSE 16.1 mph 21.9 mph N/A   Unknown
3:56 PM 91.0 °F 88.7 °F 54.0 °F 28% 29.92 in - SSE 11.5 mph 20.7 mph N/A   Unknown
4:56 PM 89.1 °F 86.7 °F 53.1 °F 29% 29.91 in - SE 13.8 mph 23.0 mph N/A   Unknown
5:56 PM 88.0 °F 85.7 °F 53.1 °F 30% 29.91 in - ESE 13.8 mph - N/A   Unknown
6:56 PM 82.9 °F 82.0 °F 55.0 °F 38% 29.90 in - ESE 15.0 mph - N/A   Unknown
7:56 PM 78.1 °F - 55.9 °F 46% 29.91 in - ESE 15.0 mph - N/A   Unknown
8:56 PM 75.0 °F - 55.9 °F 51% 29.92 in - SE 16.1 mph - N/A   Unknown
9:56 PM 73.0 °F - 57.0 °F 57% 29.92 in - SE 15.0 mph - N/A   Unknown
10:56 PM 71.1 °F - 57.0 °F 61% 29.91 in - SE 15.0 mph - N/A   Unknown
11:56 PM 69.1 °F - 57.0 °F 65% 29.91 in - SE 15.0 mph - N/A   Unknown